Location: Newark
(45.8667°N, 9.7333°E)
Time: 07:54:33
(UTC+00:00)

Courier 1B Rocket - All Passes

Search period start: 22 January 2020 00:00
Search period end: 01 February 2020 00:00
Orbit: 920 x 1202 km, 28.2° (Epoch: 21 January)

Date Brightness Start Highest point End Pass type
(mag) Time Alt. Az. Time Alt. Az. Time Alt. Az.
22 Jan - 12:06:38 10° S 12:09:10 12° SSE 12:11:38 10° SE daylight
22 Jan - 13:57:40 10° SW 14:01:23 16° S 14:05:01 10° SE daylight
22 Jan - 15:51:30 10° SW 15:53:31 12° SSW 15:55:33 10° S daylight
23 Jan - 11:07:52 10° SSE 11:08:29 10° SSE 11:09:07 10° SSE daylight
23 Jan - 12:56:54 10° SSW 13:00:43 16° S 13:04:25 10° SE daylight
23 Jan - 14:49:47 10° SW 14:52:55 14° S 14:56:00 10° SSE daylight
24 Jan - 11:56:21 10° SSW 12:00:01 15° S 12:03:35 10° SE daylight
24 Jan - 13:48:31 10° SW 13:52:17 16° S 13:55:57 10° SSE daylight
25 Jan - 10:56:06 10° SSW 10:59:19 13° SSE 11:02:26 10° SE daylight
25 Jan - 12:47:28 10° SW 12:51:36 17° S 12:55:35 10° SE daylight
25 Jan - 14:41:23 10° SW 14:43:47 12° SSW 14:46:08 10° S daylight
26 Jan - 09:56:29 10° S 09:58:35 11° SSE 10:00:39 10° SE daylight
26 Jan - 11:46:36 10° SW 11:50:53 17° S 11:55:00 10° SE daylight
26 Jan - 13:39:37 10° SW 13:43:08 15° SSW 13:46:34 10° SSE daylight
27 Jan - 10:45:57 10° SSW 10:50:08 16° S 10:54:11 10° SE daylight
27 Jan - 12:38:16 10° SW 12:42:28 17° S 12:46:30 10° SSE daylight
28 Jan - 09:45:34 10° SSW 09:49:22 15° SSE 09:53:04 10° SE daylight
28 Jan - 11:37:10 10° SW 11:41:44 18° S 11:46:07 10° SE daylight
28 Jan - 13:31:05 10° SW 13:33:58 13° SSW 13:36:47 10° S daylight
29 Jan - 08:45:43 10° S 08:48:36 12° SSE 08:51:25 10° SE daylight
29 Jan - 10:36:14 10° SW 10:40:57 18° S 10:45:31 10° SE daylight
29 Jan - 12:29:18 10° SW 12:33:18 16° SSW 12:37:08 10° SSE daylight
30 Jan - 09:35:31 10° SSW 09:40:09 17° S 09:44:39 10° SE daylight
30 Jan - 11:27:56 10° SW 11:32:34 18° S 11:37:00 10° SSE daylight
30 Jan - 13:23:34 10° SSW 13:24:44 10° SSW 13:25:53 10° SSW daylight
31 Jan - 08:35:07 10° SSW 08:39:21 16° SSE 08:43:29 10° SE daylight
31 Jan - 10:26:47 10° SW 10:31:46 19° S 10:36:34 10° SE daylight
31 Jan - 12:20:40 10° SW 12:24:04 14° SSW 12:27:22 10° SSE daylight
